Weather History for Gary, IN

Change the Weather History Date:

Monday, January 28, 2013

  Actual Average Record
Temperature  
Mean Temperature 46 °F -  
Max Temperature 51 °F 29 °F 55 °F (2002)
Min Temperature 42 °F 13 °F -15 °F (1963)
Degree Days  
Heating Degree Days 18    
Moisture  
Dew Point 44 °F    
Average Humidity 88    
Maximum Humidity 94    
Minimum Humidity 76    
Precipitation  
Precipitation 0.00 in - - ()
Sea Level Pressure  
Sea Level Pressure 29.92 in    
Wind  
Wind Speed 8 mph (WSW)    
Max Wind Speed 14 mph    
Max Gust Speed 29 mph    
Visibility 4 miles    
Events Fog , Rain    
Averages and records for this station are not official NWS values.
T = Trace of Precipitation, MM = Missing Value Source: NWS Daily Summary

Daily Weather History Graph

Daily Weather History Graph

Search for Another Location

Airport:

Trip Planner

Search our weather history database for the weather conditions in past years. The results will help you decide how hot, cold, wet, or windy it might be!

Date:

Astronomy

Jan. 28, 2013 Rise Set
Actual Time 7:05 AM CST 5:00 PM CST
Civil Twilight 6:35 AM CST 5:30 PM CST
Nautical Twilight 6:02 AM CST 6:03 PM CST
Astronomical Twilight 5:29 AM CST 6:36 PM CST
Moon 6:57 PM CST (1/28) 7:28 AM CST (1/28)
Length of Visible Light 10h 54m
Length of Day
9h 55m
Full, 98% of the Moon is Illuminated
Jan 28
Full
Feb 3
Last Quarter
Feb 10
New
Feb 17
First Quarter
Feb 25
Full

Hourly Weather History & Observations

Time (CST) Temp. Windchill Dew Point Humidity Pressure Visibility Wind Dir Wind Speed Gust Speed Precip Events Conditions
4:45 AM 48.2 °F - 44.6 °F 87% 29.85 in 4.0 mi South 11.5 mph 23.0 mph N/A Rain Light Rain
5:45 AM 48.2 °F - 46.4 °F 93% 29.84 in 5.0 mi SSW 11.5 mph 25.3 mph N/A Rain Light Rain
6:45 AM 50.0 °F - 48.2 °F 94% 29.85 in 5.0 mi SW 13.8 mph 28.8 mph N/A Rain Light Rain
8:45 AM 50.0 °F - 48.2 °F 94% 29.89 in 2.0 mi SW 11.5 mph 23.0 mph N/A   Overcast
9:45 AM 50.0 °F - 48.2 °F 94% 29.90 in 2.0 mi SW 11.5 mph 17.3 mph N/A   Overcast
10:45 AM 50.0 °F - 48.2 °F 94% 29.92 in 2.0 mi SW 6.9 mph - N/A   Overcast
11:45 AM 51.8 °F - 48.2 °F 88% 29.92 in 3.0 mi West 8.1 mph - N/A   Overcast
12:45 PM 51.8 °F - 46.4 °F 82% 29.92 in 4.0 mi West 9.2 mph - N/A   Overcast
1:15 PM 51.8 °F - 44.6 °F 76% 29.92 in 5.0 mi WSW 9.2 mph - N/A   Haze
1:45 PM 51.8 °F - 46.4 °F 82% 29.92 in 5.0 mi West 6.9 mph - N/A   Haze
2:45 PM 51.8 °F - 44.6 °F 76% 29.93 in 7.0 mi West 5.8 mph - N/A   Haze
3:45 PM 44.6 °F 39.7 °F 39.2 °F 81% 29.94 in 7.0 mi NE 9.2 mph - N/A   Haze
4:45 PM 42.8 °F 39.3 °F 39.2 °F 87% 29.95 in 7.0 mi Variable 5.8 mph - N/A   Overcast
5:45 PM 42.8 °F - 39.2 °F 87% 29.96 in 7.0 mi Calm Calm - N/A   Overcast
6:45 PM 42.8 °F - 39.2 °F 87% 29.97 in 4.0 mi Calm Calm - N/A   Overcast
7:25 PM 42.8 °F - 39.2 °F 87% 29.96 in 1.5 mi Calm Calm - N/A   Overcast
7:51 PM 42.8 °F - 41.0 °F 93% 29.95 in 1.0 mi Calm Calm - N/A   Overcast
8:45 PM 42.8 °F - 41.0 °F 93% 29.94 in 0.8 mi Calm Calm - N/A   Overcast
9:45 PM 42.8 °F - 41.0 °F 93% 29.93 in 0.5 mi Calm Calm - N/A Fog Fog